Home   Weather   Hamburg   Past weeks

Flag for Germany Past Weather in Hamburg, Hamburg, Germany — Yesterday and Last 2 Weeks

Now
37 °F

Scattered showers. Partly sunny.


Feels Like: 28 °F
Forecast: 35 / 44 °F
Wind: 15 mph from Northwest

Location: Hamburg-Fuhlsbuettel

Current Time: Feb 24, 2017 at 9:05:14 am

Latest Report: Feb 24, 2017 at 8:20 am


Visibility: N/A

Pressure: 29.56 "Hg

Humidity: 87%

Dew Point: 34 °F

Location of HamburgLocation

Past Weather in Hamburg — Graph

°F

Hamburg Temperature Yesterday

Maximum temperature yesterday: 48 °F (at 2:20 pm)
Minimum temperature yesterday: 39 °F (at 11:20 am)
Average temperature yesterday: 43 °F

High & Low Weather Summary for the Past Weeks

 TemperatureHumidityPressure
High50 °F (Feb 15, 3:20 pm)100% (Feb 14, 3:20 am)30.66 "Hg (Feb 14, 3:20 am)
Low19 °F (Feb 14, 7:50 am)43% (Feb 15, 3:20 pm)28.91 "Hg (Feb 23, 9:50 pm)
Average37 °F83%30.13 "Hg
* Reported Feb 9 7:20 am — Feb 24 7:50 am, Hamburg, Weather by CustomWeather, © 2017

Note: Actual official high and low records may vary slightly from our data, if they occured in-between our weather recording intervals... More about our weather records

Advertising

Hamburg Weather History for the Previous 24 Hours

Scroll right to see more
 ConditionsComfort  
Time TempWeatherWind HumidityBarometerVisibility
7:50 am
Fri, Feb 24
37 °FSprinkles. Broken clouds.13 mph87%29.53 "Hg6 mi
7:20 am36 °FSnow flurries. Broken clouds.10 mph93%29.50 "Hg6 mi
6:50 am37 °FLight rain. Passing clouds.10 mph93%29.47 "HgN/A
6:20 am36 °FLight rain. Passing clouds.14 mph93%29.45 "HgN/A
5:50 am36 °FLight rain. Passing clouds.18 mph93%29.42 "HgN/A
5:20 am36 °FLight rain. Passing clouds.20 mph93%29.36 "HgN/A
4:50 am36 °FLight rain. Passing clouds.20 mph93%29.33 "HgN/A
4:20 am36 °FLight rain. Passing clouds.20 mph93%29.30 "HgN/A
3:50 am36 °FLight rain. Passing clouds.23 mph93%29.24 "HgN/A
3:20 am37 °FPartly cloudy.25 mph87%29.18 "HgN/A
2:50 am37 °FLight rain. Passing clouds.31 mph93%29.12 "HgN/A
2:20 am41 °FLight rain. Passing clouds.13 mph93%29.06 "Hg6 mi
1:50 am41 °FLight rain. Passing clouds.8 mph100%29.03 "Hg6 mi
1:20 am41 °FLight rain. Passing clouds.8 mph100%29.03 "HgN/A
12:50 am41 °FLight rain. Passing clouds.10 mph93%29.03 "HgN/A
12:20 am41 °FLight rain. Partly cloudy.13 mph93%29.00 "HgN/A
11:50 pm
Thu, Feb 23
41 °FLight rain. Passing clouds.15 mph93%29.00 "Hg6 mi
11:20 pm41 °FLight rain. Passing clouds.15 mph93%28.97 "Hg4 mi
10:50 pm41 °FLight rain. Mostly cloudy.17 mph93%28.94 "HgN/A
10:20 pm41 °FLight rain. Mostly cloudy.22 mph93%28.94 "HgN/A
9:50 pm41 °FLight rain. Mostly cloudy.23 mph93%28.91 "HgN/A
9:20 pm43 °FLight rain. Passing clouds.17 mph87%28.94 "HgN/A
8:50 pm43 °FLight rain. Partly cloudy.18 mph87%28.94 "HgN/A
8:20 pm43 °FPassing clouds.17 mph87%28.97 "HgN/A
7:50 pm45 °FSprinkles. Passing clouds.18 mph87%28.97 "HgN/A
7:20 pm45 °FSprinkles. Partly cloudy.12 mph87%28.97 "HgN/A
6:50 pm43 °FSprinkles. Partly cloudy.15 mph93%29.00 "Hg6 mi
6:20 pm45 °FSprinkles. Passing clouds.12 mph87%29.00 "HgN/A
5:50 pm45 °FSprinkles. Partly cloudy.15 mph81%29.00 "HgN/A
5:20 pm45 °FThunderstorms. Broken clouds.28 mph87%29.03 "HgN/A
4:50 pm48 °FSprinkles. Partly sunny.39 mph82%29.00 "HgN/A
4:20 pm48 °FSprinkles. Partly sunny.23 mph87%29.03 "HgN/A
3:50 pm48 °FSprinkles. Partly sunny.21 mph87%29.06 "HgN/A
3:20 pm48 °FBroken clouds.23 mph87%29.09 "HgN/A
2:50 pm48 °FPartly sunny.21 mph87%29.12 "HgN/A
2:20 pm48 °FBroken clouds.16 mph87%29.15 "HgN/A
1:50 pm43 °FLight rain. Partly sunny.9 mph100%29.18 "HgN/A
1:20 pm41 °FRain. Partly sunny.13 mph100%29.21 "Hg4 mi
12:50 pm41 °FRain. Mostly cloudy.13 mph93%29.24 "Hg4 mi
12:20 pm41 °FRain. Partly sunny.10 mph93%29.30 "Hg4 mi
11:50 am39 °FLight rain. Cloudy.12 mph93%29.33 "Hg5 mi
11:20 am39 °FLight rain. More clouds than sun.9 mph93%29.36 "Hg5 mi
10:50 am41 °FLight rain. More clouds than sun.9 mph87%29.36 "HgN/A
10:20 am41 °FLight rain. Broken clouds.9 mph87%29.39 "HgN/A
9:50 am41 °FLight rain. Mostly cloudy.10 mph87%29.42 "HgN/A
9:20 am43 °FLight rain. Partly sunny.16 mph81%29.42 "HgN/A
Weather by CustomWeather, © 2017

See weather overviewHow to use our weather pages